This demonstration page uses our WeatherBlox Daily Observations layout. Learn more.

Left ArrowRight Arrow

Hourly Observations for January 18, 2016

Temp ( °F °C ) Dew Point ( °F °C ) Humidity (%) Winds ( mph kmh ) Pressure ( in mb ) Visibility ( mi km ) Precip ( " mm )
12:53 am 00:53 Clear 35 1.7 27 -2.8 72 72 NNW 5 7 30.18 1022 10 16 0.00 0.00
1:53 am 01:53 Clear 31 -0.6 25 -3.9 79 79 NNW 6 9 30.18 1022 10 16 0.00 0.00
2:53 am 02:53 Clear 32 0 27 -2.8 82 82 NNW 6 9 30.18 1022 10 16 0.00 0.00
3:53 am 03:53 Clear 30 -1.1 27 -2.8 88 88 NNE 6 9 30.19 1022 10 16 0.00 0.00
4:53 am 04:53 Clear 28 -2.2 26 -3.3 92 92 NNE 5 7 30.19 1023 10 16 0.00 0.00
5:25 am 05:25 Partly Cloudy with Mist and Fog 28 -2.2 26 -3.3 92 92 NE 6 9 30.36 1028 6 10 0.00 0.00
5:30 am 05:30 Mostly Cloudy with Mist and Fog 28 -2 27 -3 93 93 NE 7 11 30.36 1028 3 4 0.00 0.00
5:34 am 05:34 Mostly Cloudy with Mist and Fog 28 -2 27 -3 93 93 NE 7 11 30.36 1028 1 1 0.00 0.00
5:45 am 05:45 Mostly Cloudy with Freezing Fog 30 -1.1 29 -1.7 96 96 ENE 8 13 30.36 1028 0 0 0.00 0.00
5:53 am 05:53 Mostly Cloudy with Freezing Fog 30 -1.1 29 -1.7 96 96 NE 7 11 30.21 1023 0 0 0.00 0.00
6:11 am 06:11 Mostly Cloudy with Freezing Fog 31 -0.6 29 -1.7 92 92 NE 6 9 30.36 1028 1 1 0.00 0.00
6:53 am 06:53 Mostly Cloudy with Freezing Fog 30 -1.1 28 -2.2 92 92 E 6 9 30.24 1024 1 1 0.00 0.00
7:51 am 07:51 Mostly Cloudy with Freezing Fog 30 -1 28 -2 93 93 ESE 6 9 30.39 1029 0 0 0.00 0.00
7:53 am 07:53 Mostly Cloudy with Freezing Fog 30 -1.1 29 -1.7 96 96 ESE 5 7 30.26 1025 0 0 0.00 0.00
8:53 am 08:53 Mostly Cloudy with Freezing Fog 31 -0.6 30 -1.1 96 96 SE 8 13 30.29 1026 0 0 0.00 0.00
9:53 am 09:53 Mostly Cloudy with Fog 32 0 30 -1.1 92 92 ESE 6 9 30.30 1026 0 0 0.00 0.00
10:43 am 10:43 Mostly Cloudy with Fog 32 0 31 -0.6 96 96 SSE 6 9 30.45 1031 1 1 0.00 0.00
10:53 am 10:53 Mostly Cloudy with Fog 32 0 31 -0.6 96 96 SE 7 11 30.33 1027 1 1 0.00 0.00
11:21 am 11:21 Cloudy with Mist and Fog 32 0 32 0 100 100 E 5 7 30.45 1031 2 3 0.00 0.00
11:33 am 11:33 Cloudy with Mist and Fog 33 0.6 32 0 96 96 SSE 5 7 30.42 1030 3 5 0.00 0.00
11:53 am 11:53 Cloudy with Mist and Fog 34 1.1 32 0 92 92 ESE 5 7 30.31 1027 6 10 0.00 0.00
12:20 pm 12:20 Cloudy 36 2 32 0 87 87 E 5 7 30.39 1029 9 14 0.00 0.00
12:53 pm 12:53 Mostly Sunny 41 5 33 0.6 73 73 SE 5 7 30.26 1025 10 16 0.00 0.00
1:53 pm 13:53 Sunny 47 8.3 33 0.6 59 59 ESE 7 11 30.19 1023 10 16 0.00 0.00
2:53 pm 14:53 Sunny 53 11.7 33 0.6 47 47 SE 9 15 30.13 1020 10 16 0.00 0.00
3:53 pm 15:53 Sunny 56 13.3 31 -0.6 39 39 SSE 12 19 30.11 1020 10 16 0.00 0.00
4:53 pm 16:53 Sunny 57 13.9 30 -1.1 36 36 SSE 10 17 30.10 1019 10 16 0.00 0.00
5:53 pm 17:53 Sunny 54 12.2 30 -1.1 40 40 SSE 8 13 30.10 1019 10 16 0.00 0.00
6:53 pm 18:53 Clear 46 7.8 30 -1.1 54 54 SSE 8 13 30.12 1020 10 16 0.00 0.00
7:53 pm 19:53 Clear 44 6.7 29 -1.7 55 55 S 3 6 30.14 1021 10 16 0.00 0.00
8:53 pm 20:53 Clear 40 4.4 28 -2.2 63 63 Calm 30.14 1021 10 16 0.00 0.00
9:53 pm 21:53 Clear 41 5 29 -1.7 62 62 SE 7 11 30.14 1021 10 16 0.00 0.00
10:53 pm 22:53 Clear 42 5.6 32 0 68 68 SE 8 13 30.13 1020 10 16 0.00 0.00
11:53 pm 23:53 Clear 42 5.6 32 0 68 68 SE 10 17 30.11 1020 10 16 0.00 0.00

Powered by AerisWeather